25-11-2023, 00:00:01,    250,    0.0,   -0.7,   0.00,   0.00, 1018.8,   67.2, -999.0
25-11-2023, 00:00:11,    251,    0.0,   -0.7,   0.00,   0.00, 1018.8,   67.2, -999.0
25-11-2023, 00:00:21,    250,    0.0,   -0.6,   0.00,   0.00, 1018.8,   67.4, -999.0
25-11-2023, 00:00:31,    250,    0.0,   -0.7,   0.00,   0.00, 1018.8,   67.5, -999.0
25-11-2023, 00:00:41,    250,    0.0,   -0.7,   0.00,   0.00, 1018.8,   67.5, -999.0
25-11-2023, 00:00:51,    250,    0.0,   -0.7,   0.00,   0.00, 1018.8,   67.6, -999.0
25-11-2023, 00:01:01,    250,    0.0,   -0.7,   0.00,   0.00, 1018.8,   67.6, -999.0
25-11-2023, 00:01:10,    250,    0.0,   -0.7,   0.00,   0.00, 1018.8,   67.7, -999.0
25-11-2023, 00:01:21,    250,    0.0,   -0.7,   0.00,   0.00, 1018.8,   67.9, -999.0
25-11-2023, 00:01:31,    250,    0.0,   -0.7,   0.00,   0.00, 1018.8,   68.0, -999.0
25-11-2023, 00:01:41,    251,    0.0,   -0.7,   0.00,   0.00, 1018.8,   68.1, -999.0
25-11-2023, 00:01:50,    250,    0.0,   -0.6,   0.00,   0.00, 1018.9,   68.3, -999.0
25-11-2023, 00:02:01,    250,    0.0,   -0.7,   0.00,   0.00, 1018.8,   68.4, -999.0
25-11-2023, 00:02:11,    250,    0.0,   -0.6,   0.00,   0.00, 1018.8,   68.5, -999.0
25-11-2023, 00:02:20,    250,    0.0,   -0.8,   0.00,   0.00, 1018.8,   68.6, -999.0
25-11-2023, 00:02:30,    250,    0.0,   -0.7,   0.00,   0.00, 1018.9,   68.6, -999.0
25-11-2023, 00:02:41,    250,    0.0,   -0.8,   0.00,   0.00, 1018.8,   68.6, -999.0
25-11-2023, 00:02:50,    250,    0.0,   -0.7,   0.00,   0.00, 1018.8,   68.6, -999.0
25-11-2023, 00:03:00,    250,    0.0,   -0.7,   0.00,   0.00, 1018.9,   68.9, -999.0
25-11-2023, 00:03:10,    250,    0.0,   -0.8,   0.00,   0.00, 1018.9,   68.7, -999.0
25-11-2023, 00:03:21,    250,    0.0,   -0.8,   0.00,   0.00, 1018.9,   68.8, -999.0
25-11-2023, 00:03:30,    250,    0.0,   -0.8,   0.00,   0.00, 1018.9,   68.8, -999.0
25-11-2023, 00:03:40,    250,    0.0,   -0.8,   0.00,   0.00, 1018.9,   68.8, -999.0
25-11-2023, 00:03:51,    251,    0.0,   -0.7,   0.00,   0.00, 1018.9,   68.8, -999.0
25-11-2023, 00:04:00,    250,    0.0,   -0.8,   0.00,   0.00, 1018.9,   68.9, -999.0
25-11-2023, 00:04:10,    250,    0.0,   -0.8,   0.00,   0.00, 1018.9,   69.0, -999.0
25-11-2023, 00:04:20,    249,    0.0,   -0.8,   0.00,   0.00, 1018.9,   69.1, -999.0
25-11-2023, 00:04:30,    250,    0.0,   -0.8,   0.00,   0.00, 1018.8,   69.2, -999.0
25-11-2023, 00:04:40,    250,    0.0,   -0.9,   0.00,   0.00, 1018.9,   69.3, -999.0
25-11-2023, 00:04:50,    250,    0.0,   -0.8,   0.00,   0.00, 1018.9,   69.3, -999.0
25-11-2023, 00:05:00,    250,    0.0,   -0.8,   0.00,   0.00, 1018.9,   69.5, -999.0
25-11-2023, 00:05:10,    250,    0.0,   -0.9,   0.00,   0.00, 1018.8,   69.5, -999.0
25-11-2023, 00:05:20,    250,    0.0,   -0.8,   0.00,   0.00, 1018.9,   69.5, -999.0
25-11-2023, 00:05:30,    250,    0.0,   -0.8,   0.00,   0.00, 1018.9,   69.5, -999.0
25-11-2023, 00:05:40,    250,    0.0,   -0.9,   0.00,   0.00, 1018.9,   69.5, -999.0
25-11-2023, 00:05:50,    250,    0.0,   -0.8,   0.00,   0.00, 1018.9,   69.7, -999.0
25-11-2023, 00:06:00,    250,    0.0,   -0.8,   0.00,   0.00, 1018.9,   69.7, -999.0
25-11-2023, 00:06:10,    250,    0.0,   -0.8,   0.00,   0.00, 1018.9,   69.8, -999.0
25-11-2023, 00:06:20,    250,    0.0,   -0.9,   0.00,   0.00, 1018.9,   69.9, -999.0
25-11-2023, 00:06:30,    250,    0.0,   -0.9,   0.00,   0.00, 1018.8,   69.9, -999.0
25-11-2023, 00:06:40,    250,    0.0,   -0.9,   0.00,   0.00, 1018.9,   69.9, -999.0
25-11-2023, 00:06:50,    250,    0.0,   -0.9,   0.00,   0.00, 1018.9,   70.1, -999.0
25-11-2023, 00:07:00,    250,    0.0,   -0.9,   0.00,   0.00, 1018.9,   70.1, -999.0
25-11-2023, 00:07:10,    250,    0.0,   -1.0,   0.00,   0.00, 1018.9,   70.3, -999.0
25-11-2023, 00:07:20,    250,    0.0,   -0.9,   0.00,   0.00, 1018.9,   70.5, -999.0
25-11-2023, 00:07:30,    250,    0.0,   -0.9,   0.00,   0.00, 1018.9,   70.5, -999.0
25-11-2023, 00:07:40,    250,    0.0,   -0.9,   0.00,   0.00, 1018.9,   70.5, -999.0
25-11-2023, 00:07:50,    251,    0.0,   -0.9,   0.00,   0.00, 1018.9,   70.6, -999.0
25-11-2023, 00:08:00,    251,    0.0,   -0.9,   0.00,   0.00, 1018.9,   70.6, -999.0
25-11-2023, 00:08:10,    251,    0.0,   -1.0,   0.00,   0.00, 1018.9,   70.7, -999.0
25-11-2023, 00:08:20,    251,    0.0,   -0.9,   0.00,   0.00, 1018.9,   70.7, -999.0
25-11-2023, 00:08:30,    251,    0.0,   -0.9,   0.00,   0.00, 1018.9,   70.8, -999.0
25-11-2023, 00:08:40,    251,    0.0,   -0.9,   0.00,   0.00, 1019.0,   70.9, -999.0
25-11-2023, 00:08:50,    251,    0.0,   -0.9,   0.00,   0.00, 1018.9,   70.9, -999.0
25-11-2023, 00:09:00,    251,    0.0,   -0.9,   0.00,   0.00, 1018.9,   71.1, -999.0
25-11-2023, 00:09:10,    251,    0.0,   -0.9,   0.00,   0.00, 1018.9,   71.0, -999.0
25-11-2023, 00:09:20,    251,    0.0,   -0.9,   0.00,   0.00, 1018.9,   71.0, -999.0
25-11-2023, 00:09:30,    251,    0.0,   -1.0,   0.00,   0.00, 1018.9,   71.1, -999.0
25-11-2023, 00:09:39,    251,    0.0,   -1.0,   0.00,   0.00, 1018.9,   71.2, -999.0
25-11-2023, 00:09:50,    251,    0.0,   -1.1,   0.00,   0.00, 1018.9,   71.1, -999.0
25-11-2023, 00:10:00,    251,    0.0,   -1.0,   0.00,   0.00, 1019.0,   71.1, -999.0
25-11-2023, 00:10:09,    251,    0.0,   -1.0,   0.00,   0.00, 1018.9,   71.2, -999.0
25-11-2023, 00:10:20,    251,    0.0,   -1.0,   0.00,   0.00, 1018.9,   71.2, -999.0
25-11-2023, 00:10:30,    251,    0.0,   -1.0,   0.00,   0.00, 1018.9,   71.0, -999.0
25-11-2023, 00:10:40,    251,    0.0,   -1.0,   0.00,   0.00, 1019.0,   71.2, -999.0
25-11-2023, 00:10:49,    251,    0.0,   -1.0,   0.00,   0.00, 1018.9,   71.5, -999.0
25-11-2023, 00:11:00,    251,    0.0,   -1.0,   0.00,   0.00, 1018.9,   71.5, -999.0
25-11-2023, 00:11:10,    251,    0.0,   -1.0,   0.00,   0.00, 1018.9,   71.4, -999.0
25-11-2023, 00:11:19,    251,    0.0,   -1.0,   0.00,   0.00, 1019.0,   71.6, -999.0
25-11-2023, 00:11:29,    251,    0.0,   -1.0,   0.00,   0.00, 1019.0,   71.6, -999.0
25-11-2023, 00:11:40,    251,    0.0,   -1.0,   0.00,   0.00, 1018.9,   71.8, -999.0
25-11-2023, 00:11:49,    251,    0.0,   -1.0,   0.00,   0.00, 1019.0,   71.7, -999.0
25-11-2023, 00:11:59,    251,    0.0,   -1.0,   0.00,   0.00, 1018.9,   71.9, -999.0
25-11-2023, 00:12:10,    251,    0.0,   -1.0,   0.00,   0.00, 1019.0,   72.0, -999.0
25-11-2023, 00:12:19,    251,    0.0,   -0.9,   0.00,   0.00, 1019.0,   72.0, -999.0
25-11-2023, 00:12:29,    251,    0.0,   -0.9,   0.00,   0.00, 1019.0,   72.0, -999.0
25-11-2023, 00:12:39,    251,    0.0,   -0.9,   0.00,   0.00, 1019.0,   71.9, -999.0
25-11-2023, 00:12:50,    251,    0.0,   -1.0,   0.00,   0.00, 1019.0,   71.7, -999.0
25-11-2023, 00:12:59,    251,    0.0,   -0.9,   0.00,   0.00, 1019.0,   71.7, -999.0
25-11-2023, 00:13:09,    251,    0.0,   -0.9,   0.00,   0.00, 1018.9,   71.7, -999.0
25-11-2023, 00:13:19,    251,    0.0,   -0.9,   0.00,   0.00, 1018.9,   71.6, -999.0
25-11-2023, 00:13:29,    251,    0.0,   -0.9,   0.00,   0.00, 1019.0,   71.6, -999.0
25-11-2023, 00:13:39,    251,    0.0,   -0.9,   0.00,   0.00, 1018.9,   71.5, -999.0
25-11-2023, 00:13:49,    251,    0.0,   -0.9,   0.00,   0.00, 1019.0,   71.4, -999.0
25-11-2023, 00:13:59,    253,    0.0,   -0.8,   0.00,   0.00, 1019.0,   71.5, -999.0
25-11-2023, 00:14:09,    252,    0.0,   -0.9,   0.00,   0.00, 1019.0,   71.4, -999.0
25-11-2023, 00:14:19,    251,    0.0,   -0.9,   0.00,   0.00, 1018.9,   71.3, -999.0
25-11-2023, 00:14:29,    251,    0.0,   -0.9,   0.00,   0.00, 1019.0,   71.4, -999.0
25-11-2023, 00:14:39,    251,    0.0,   -1.0,   0.00,   0.00, 1019.0,   71.5, -999.0
25-11-2023, 00:14:49,    251,    0.0,   -1.0,   0.00,   0.00, 1019.0,   71.5, -999.0
25-11-2023, 00:14:59,    251,    0.0,   -0.9,   0.00,   0.00, 1018.9,   71.5, -999.0
25-11-2023, 00:15:09,    251,    0.0,   -0.9,   0.00,   0.00, 1018.9,   71.4, -999.0
25-11-2023, 00:15:19,    251,    0.0,   -0.9,   0.00,   0.00, 1018.9,   71.5, -999.0
25-11-2023, 00:15:29,    251,    0.0,   -0.9,   0.00,   0.00, 1018.9,   71.6, -999.0
25-11-2023, 00:15:39,    251,    0.0,   -0.9,   0.00,   0.00, 1018.9,   71.6, -999.0
25-11-2023, 00:15:49,    250,    0.0,   -0.9,   0.00,   0.00, 1018.9,   71.7, -999.0
25-11-2023, 00:15:59,    251,    0.0,   -0.9,   0.00,   0.00, 1018.9,   71.6, -999.0
25-11-2023, 00:16:09,    251,    0.0,   -0.9,   0.00,   0.00, 1018.9,   71.6, -999.0
25-11-2023, 00:16:19,    251,    0.0,   -0.9,   0.00,   0.00, 1018.9,   71.6, -999.0
25-11-2023, 00:16:29,    251,    0.0,   -0.9,   0.00,   0.00, 1018.9,   71.6, -999.0
25-11-2023, 00:16:39,    251,    0.0,   -0.9,   0.00,   0.00, 1018.9,   71.6, -999.0
25-11-2023, 00:16:49,    251,    0.0,   -0.9,   0.00,   0.00, 1018.9,   71.5, -999.0
25-11-2023, 00:16:59,    251,    0.0,   -0.9,   0.00,   0.00, 1018.9,   71.7, -999.0
25-11-2023, 00:17:09,    270,    0.0,   -1.0,   0.00,   0.00, 1018.9,   71.6, -999.0
25-11-2023, 00:17:19,    329,    1.2,   -0.8,   0.00,   0.00, 1019.1,   72.1, -999.0
25-11-2023, 00:17:29,    327,    0.1,   -0.7,   0.00,   0.00, 1019.0,   72.0, -999.0
25-11-2023, 00:17:39,    327,    0.0,   -0.8,   0.00,   0.00, 1018.9,   72.0, -999.0
25-11-2023, 00:17:49,    327,    0.0,   -0.8,   0.00,   0.00, 1018.9,   71.7, -999.0
25-11-2023, 00:17:59,    327,    0.0,   -0.8,   0.00,   0.00, 1018.9,   71.7, -999.0
25-11-2023, 00:18:09,    327,    0.0,   -0.8,   0.00,   0.00, 1018.9,   71.6, -999.0
25-11-2023, 00:18:19,    327,    0.0,   -0.8,   0.00,   0.00, 1018.9,   71.4, -999.0
25-11-2023, 00:18:29,    327,    0.0,   -0.7,   0.00,   0.00, 1018.9,   71.2, -999.0
25-11-2023, 00:18:39,    327,    0.0,   -0.7,   0.00,   0.00, 1018.9,   71.2, -999.0
25-11-2023, 00:18:49,    327,    0.0,   -0.7,   0.00,   0.00, 1018.9,   71.2, -999.0
25-11-2023, 00:18:59,    327,    0.0,   -0.6,   0.00,   0.00, 1018.9,   71.2, -999.0
25-11-2023, 00:19:08,    327,    0.0,   -0.6,   0.00,   0.00, 1018.9,   71.2, -999.0
25-11-2023, 00:19:19,    328,    0.0,   -0.7,   0.00,   0.00, 1018.9,   71.0, -999.0
25-11-2023, 00:19:29,    327,    0.4,   -0.6,   0.00,   0.00, 1019.0,   71.1, -999.0
25-11-2023, 00:19:39,    327,    0.3,   -0.8,   0.00,   0.00, 1019.0,   70.8, -999.0
25-11-2023, 00:19:48,    327,    0.2,   -0.6,   0.00,   0.00, 1019.0,   70.6, -999.0
25-11-2023, 00:19:59,    327,    0.0,   -0.6,   0.00,   0.00, 1018.9,   70.3, -999.0
25-11-2023, 00:20:09,    327,    0.0,   -0.7,   0.00,   0.00, 1018.9,   70.2, -999.0
25-11-2023, 00:20:18,    327,    0.0,   -0.7,   0.00,   0.00, 1018.9,   70.2, -999.0
25-11-2023, 00:20:28,    327,    0.0,   -0.6,   0.00,   0.00, 1018.9,   70.1, -999.0
25-11-2023, 00:20:39,    327,    0.0,   -0.7,   0.00,   0.00, 1018.9,   70.0, -999.0
25-11-2023, 00:20:48,    327,    0.0,   -0.6,   0.00,   0.00, 1018.9,   70.0, -999.0
25-11-2023, 00:20:58,    327,    0.0,   -0.7,   0.00,   0.00, 1018.9,   69.7, -999.0
25-11-2023, 00:21:08,    327,    0.0,   -0.7,   0.00,   0.00, 1018.9,   69.8, -999.0
25-11-2023, 00:21:21,    327,    0.0,   -0.7,   0.00,   0.00, 1018.9,   69.7, -999.0
25-11-2023, 00:21:29,    327,    0.0,   -0.7,   0.00,   0.00, 1018.8,   69.7, -999.0
25-11-2023, 00:21:38,    327,    0.0,   -0.6,   0.00,   0.00, 1018.9,   69.7, -999.0
25-11-2023, 00:21:48,    327,    0.7,   -0.6,   0.00,   0.00, 1019.0,   69.8, -999.0
25-11-2023, 00:21:58,    327,    0.0,   -0.6,   0.00,   0.00, 1018.9,   69.7, -999.0
25-11-2023, 00:22:08,    327,    0.0,   -0.7,   0.00,   0.00, 1018.9,   69.5, -999.0
25-11-2023, 00:22:18,    327,    0.4,   -0.7,   0.00,   0.00, 1018.9,   69.7, -999.0
25-11-2023, 00:22:28,    327,    0.2,   -0.6,   0.00,   0.00, 1018.9,   69.5, -999.0
25-11-2023, 00:22:38,    327,    0.0,   -0.6,   0.00,   0.00, 1018.9,   69.4, -999.0
25-11-2023, 00:22:48,    326,    0.0,   -0.7,   0.00,   0.00, 1018.9,   69.3, -999.0
25-11-2023, 00:22:58,    327,    0.0,   -0.6,   0.00,   0.00, 1018.9,   69.2, -999.0
25-11-2023, 00:23:08,    327,    0.0,   -0.6,   0.00,   0.00, 1018.9,   69.2, -999.0
25-11-2023, 00:23:18,    327,    0.0,   -0.7,   0.00,   0.00, 1018.9,   69.2, -999.0
25-11-2023, 00:23:28,    327,    0.0,   -0.7,   0.00,   0.00, 1018.9,   69.1, -999.0
25-11-2023, 00:23:38,    327,    0.0,   -0.7,   0.00,   0.00, 1018.9,   69.1, -999.0
25-11-2023, 00:23:48,    327,    0.0,   -0.7,   0.00,   0.00, 1018.9,   69.1, -999.0
25-11-2023, 00:23:58,    327,    0.0,   -0.7,   0.00,   0.00, 1018.9,   69.1, -999.0
25-11-2023, 00:24:08,    327,    0.0,   -0.8,   0.00,   0.00, 1018.9,   69.1, -999.0
25-11-2023, 00:24:18,    327,    0.0,   -0.6,   0.00,   0.00, 1018.8,   69.1, -999.0
25-11-2023, 00:24:28,    326,    0.0,   -0.7,   0.00,   0.00, 1018.9,   69.0, -999.0
25-11-2023, 00:24:38,    327,    0.0,   -0.7,   0.00,   0.00, 1018.9,   69.0, -999.0
25-11-2023, 00:24:48,    326,    0.0,   -0.7,   0.00,   0.00, 1018.9,   69.1, -999.0
25-11-2023, 00:24:58,    327,    0.0,   -0.8,   0.00,   0.00, 1018.9,   69.1, -999.0
25-11-2023, 00:25:08,    327,    0.0,   -0.7,   0.00,   0.00, 1018.9,   69.1, -999.0
25-11-2023, 00:25:18,    327,    0.0,   -0.7,   0.00,   0.00, 1018.9,   69.1, -999.0
25-11-2023, 00:25:28,    327,    0.0,   -0.7,   0.00,   0.00, 1018.8,   69.1, -999.0
25-11-2023, 00:25:38,    327,    0.0,   -0.7,   0.00,   0.00, 1018.9,   69.0, -999.0
25-11-2023, 00:25:48,    327,    0.0,   -0.7,   0.00,   0.00, 1018.9,   69.0, -999.0
25-11-2023, 00:25:58,    327,    0.0,   -0.7,   0.00,   0.00, 1018.9,   69.0, -999.0
25-11-2023, 00:26:08,    326,    0.0,   -0.8,   0.00,   0.00, 1018.9,   69.0, -999.0
25-11-2023, 00:26:18,    327,    0.0,   -0.6,   0.00,   0.00, 1018.9,   69.0, -999.0
25-11-2023, 00:26:28,    327,    0.0,   -0.6,   0.00,   0.00, 1018.9,   69.0, -999.0
25-11-2023, 00:26:38,    327,    0.0,   -0.7,   0.00,   0.00, 1018.8,   69.1, -999.0
25-11-2023, 00:26:48,    327,    0.0,   -0.5,   0.00,   0.00, 1018.9,   69.1, -999.0
25-11-2023, 00:26:58,    327,    0.0,   -0.7,   0.00,   0.00, 1018.9,   69.0, -999.0
25-11-2023, 00:27:08,    326,    1.0,   -0.6,   0.00,   0.00, 1019.0,   69.5, -999.0
25-11-2023, 00:27:18,    326,    0.0,   -0.6,   0.00,   0.00, 1018.9,   69.1, -999.0
25-11-2023, 00:27:28,    326,    0.0,   -0.6,   0.00,   0.00, 1018.9,   69.1, -999.0
25-11-2023, 00:27:38,    326,    0.2,   -0.6,   0.00,   0.00, 1018.9,   69.2, -999.0
25-11-2023, 00:27:47,    326,    0.0,   -0.6,   0.00,   0.00, 1018.9,   68.9, -999.0
25-11-2023, 00:27:58,    326,    0.0,   -0.6,   0.00,   0.00, 1018.9,   69.0, -999.0
25-11-2023, 00:28:08,    326,    0.0,   -0.7,   0.00,   0.00, 1018.9,   68.9, -999.0
25-11-2023, 00:28:17,    326,    0.0,   -0.6,   0.00,   0.00, 1018.8,   68.9, -999.0
25-11-2023, 00:28:28,    326,    0.0,   -0.6,   0.00,   0.00, 1018.9,   69.0, -999.0
25-11-2023, 00:28:38,    325,    0.0,   -0.5,   0.00,   0.00, 1018.9,   68.9, -999.0
25-11-2023, 00:28:48,    326,    0.0,   -0.5,   0.00,   0.00, 1018.8,   68.8, -999.0
25-11-2023, 00:28:57,    326,    0.0,   -0.6,   0.00,   0.00, 1018.8,   68.8, -999.0
25-11-2023, 00:29:08,    326,    0.0,   -0.6,   0.00,   0.00, 1018.9,   68.7, -999.0
25-11-2023, 00:29:18,    326,    0.0,   -0.7,   0.00,   0.00, 1018.9,   68.7, -999.0
25-11-2023, 00:29:27,    326,    0.0,   -0.6,   0.00,   0.00, 1018.9,   68.6, -999.0
25-11-2023, 00:29:37,    326,    0.0,   -0.6,   0.00,   0.00, 1018.9,   68.4, -999.0
25-11-2023, 00:29:48,    326,    0.0,   -0.6,   0.00,   0.00, 1018.8,   68.5, -999.0
25-11-2023, 00:29:58,    326,    0.0,   -0.5,   0.00,   0.00, 1018.9,   68.5, -999.0
25-11-2023, 00:30:07,    311,    1.3,   -0.5,   0.00,   0.00, 1018.9,   68.7, -999.0
25-11-2023, 00:30:17,    310,    1.4,   -0.5,   0.00,   0.00, 1019.0,   68.9, -999.0
25-11-2023, 00:30:28,    310,    0.8,   -0.4,   0.00,   0.00, 1019.0,   68.8, -999.0
25-11-2023, 00:30:37,    310,    0.0,   -0.6,   0.00,   0.00, 1018.9,   68.5, -999.0
25-11-2023, 00:30:47,    311,    0.0,   -0.5,   0.00,   0.00, 1018.9,   68.4, -999.0
25-11-2023, 00:30:57,    310,    0.0,   -0.6,   0.00,   0.00, 1018.9,   68.4, -999.0
25-11-2023, 00:31:07,    311,    0.0,   -0.6,   0.00,   0.00, 1018.9,   68.4, -999.0
25-11-2023, 00:31:17,    310,    0.0,   -0.5,   0.00,   0.00, 1018.9,   68.5, -999.0
25-11-2023, 00:31:27,    310,    0.0,   -0.5,   0.00,   0.00, 1018.9,   68.3, -999.0
25-11-2023, 00:31:37,    311,    0.0,   -0.5,   0.00,   0.00, 1019.0,   68.3, -999.0
25-11-2023, 00:31:47,    310,    1.2,   -0.4,   0.00,   0.00, 1019.1,   68.6, -999.0
25-11-2023, 00:31:57,    310,    0.3,   -0.5,   0.00,   0.00, 1018.9,   68.5, -999.0
25-11-2023, 00:32:07,    310,    0.2,   -0.4,   0.00,   0.00, 1018.9,   68.3, -999.0
25-11-2023, 00:32:19,    310,    0.9,   -0.5,   0.00,   0.00, 1019.0,   68.5, -999.0
25-11-2023, 00:32:27,    310,    0.4,   -0.4,   0.00,   0.00, 1019.0,   68.4, -999.0
25-11-2023, 00:32:37,    310,    0.1,   -0.4,   0.00,   0.00, 1018.9,   68.4, -999.0
25-11-2023, 00:32:47,    310,    0.0,   -0.6,   0.00,   0.00, 1018.9,   68.2, -999.0
25-11-2023, 00:32:57,    309,    0.0,   -0.6,   0.00,   0.00, 1018.9,   68.1, -999.0
25-11-2023, 00:33:07,    310,    0.0,   -0.5,   0.00,   0.00, 1018.9,   68.0, -999.0
25-11-2023, 00:33:17,    309,    0.0,   -0.5,   0.00,   0.00, 1018.9,   68.1, -999.0
25-11-2023, 00:33:27,    310,    0.0,   -0.5,   0.00,   0.00, 1018.9,   68.0, -999.0
25-11-2023, 00:33:37,    309,    0.0,   -0.5,   0.00,   0.00, 1018.9,   67.9, -999.0
25-11-2023, 00:33:47,    309,    0.0,   -0.5,   0.00,   0.00, 1018.9,   67.8, -999.0
25-11-2023, 00:33:57,    309,    0.0,   -0.5,   0.00,   0.00, 1018.9,   67.8, -999.0
25-11-2023, 00:34:07,    309,    0.0,   -0.5,   0.00,   0.00, 1018.9,   67.9, -999.0
25-11-2023, 00:34:17,    310,    0.0,   -0.5,   0.00,   0.00, 1018.9,   68.0, -999.0
25-11-2023, 00:34:27,    310,    0.0,   -0.6,   0.00,   0.00, 1018.9,   68.1, -999.0
25-11-2023, 00:34:37,    310,    0.0,   -0.6,   0.00,   0.00, 1018.9,   67.9, -999.0
25-11-2023, 00:34:47,    310,    0.0,   -0.7,   0.00,   0.00, 1018.9,   68.0, -999.0
25-11-2023, 00:34:57,    310,    0.0,   -0.6,   0.00,   0.00, 1018.9,   68.0, -999.0
25-11-2023, 00:35:07,    310,    0.0,   -0.6,   0.00,   0.00, 1018.9,   68.0, -999.0
25-11-2023, 00:35:17,    310,    0.0,   -0.6,   0.00,   0.00, 1018.9,   68.1, -999.0
25-11-2023, 00:35:27,    305,    0.0,   -0.6,   0.00,   0.00, 1018.9,   68.0, -999.0
25-11-2023, 00:35:37,    310,    0.5,   -0.5,   0.00,   0.00, 1019.0,   68.2, -999.0
25-11-2023, 00:35:47,    307,    1.0,   -0.4,   0.00,   0.00, 1019.1,   68.4, -999.0
25-11-2023, 00:35:57,    309,    0.3,   -0.5,   0.00,   0.00, 1018.9,   68.3, -999.0
25-11-2023, 00:36:07,    308,    0.1,   -0.6,   0.00,   0.00, 1018.9,   68.2, -999.0
25-11-2023, 00:36:17,    309,    0.0,   -0.6,   0.00,   0.00, 1018.9,   68.0, -999.0
25-11-2023, 00:36:27,    309,    0.0,   -0.7,   0.00,   0.00, 1018.9,   68.0, -999.0
25-11-2023, 00:36:37,    309,    0.0,   -0.6,   0.00,   0.00, 1018.9,   68.0, -999.0
25-11-2023, 00:36:46,    310,    0.0,   -0.6,   0.00,   0.00, 1018.9,   68.0, -999.0
25-11-2023, 00:36:57,    309,    1.1,   -0.5,   0.00,   0.00, 1019.0,   68.5, -999.0
25-11-2023, 00:37:07,    309,    0.0,   -0.5,   0.00,   0.00, 1018.9,   68.1, -999.0
25-11-2023, 00:37:17,    308,    0.0,   -0.6,   0.00,   0.00, 1018.9,   68.0, -999.0
25-11-2023, 00:37:26,    309,    0.0,   -0.6,   0.00,   0.00, 1018.9,   68.0, -999.0
25-11-2023, 00:37:37,    309,    0.0,   -0.6,   0.00,   0.00, 1018.9,   68.0, -999.0
25-11-2023, 00:37:47,    308,    0.0,   -0.5,   0.00,   0.00, 1018.9,   68.0, -999.0
25-11-2023, 00:37:56,    309,    0.0,   -0.5,   0.00,   0.00, 1018.8,   68.0, -999.0
25-11-2023, 00:38:06,    309,    0.0,   -0.6,   0.00,   0.00, 1018.9,   68.1, -999.0
25-11-2023, 00:38:17,    308,    0.0,   -0.6,   0.00,   0.00, 1018.8,   68.0, -999.0
25-11-2023, 00:38:27,    309,    0.0,   -0.6,   0.00,   0.00, 1018.9,   68.1, -999.0
25-11-2023, 00:38:36,    309,    0.0,   -0.6,   0.00,   0.00, 1018.9,   68.0, -999.0
25-11-2023, 00:38:46,    311,    0.2,   -0.6,   0.00,   0.00, 1018.9,   68.2, -999.0
25-11-2023, 00:38:57,    310,    0.0,   -0.6,   0.00,   0.00, 1018.9,   68.2, -999.0
25-11-2023, 00:39:06,    300,    0.0,   -0.6,   0.00,   0.00, 1018.9,   68.3, -999.0
25-11-2023, 00:39:16,    300,    0.0,   -0.6,   0.00,   0.00, 1018.9,   68.2, -999.0
25-11-2023, 00:39:26,    299,    0.0,   -0.6,   0.00,   0.00, 1018.9,   68.2, -999.0
25-11-2023, 00:39:36,    300,    0.0,   -0.8,   0.00,   0.00, 1018.9,   68.0, -999.0
25-11-2023, 00:39:47,    300,    0.0,   -0.7,   0.00,   0.00, 1018.9,   68.1, -999.0
25-11-2023, 00:39:56,    300,    0.0,   -0.6,   0.00,   0.00, 1018.8,   68.0, -999.0
25-11-2023, 00:40:06,    300,    0.0,   -0.6,   0.00,   0.00, 1018.8,   68.1, -999.0
25-11-2023, 00:40:16,    302,    0.0,   -0.6,   0.00,   0.00, 1018.8,   68.1, -999.0
25-11-2023, 00:40:26,    301,    0.0,   -0.8,   0.00,   0.00, 1018.8,   68.0, -999.0
25-11-2023, 00:40:36,    301,    0.0,   -0.6,   0.00,   0.00, 1018.8,   68.1, -999.0
25-11-2023, 00:40:46,    301,    0.0,   -0.6,   0.00,   0.00, 1018.8,   68.1, -999.0
25-11-2023, 00:40:56,    301,    0.0,   -0.6,   0.00,   0.00, 1018.8,   68.2, -999.0
25-11-2023, 00:41:06,    301,    0.0,   -0.8,   0.00,   0.00, 1018.9,   68.2, -999.0
25-11-2023, 00:41:16,    301,    0.0,   -0.7,   0.00,   0.00, 1018.8,   68.2, -999.0
25-11-2023, 00:41:26,    301,    0.0,   -0.6,   0.00,   0.00, 1018.8,   68.2, -999.0
25-11-2023, 00:41:36,    301,    0.0,   -0.6,   0.00,   0.00, 1018.8,   68.2, -999.0
25-11-2023, 00:41:46,    301,    0.0,   -0.6,   0.00,   0.00, 1018.8,   68.2, -999.0
25-11-2023, 00:41:56,    302,    0.0,   -0.6,   0.00,   0.00, 1018.8,   68.2, -999.0
25-11-2023, 00:42:06,    301,    0.0,   -0.6,   0.00,   0.00, 1018.8,   68.2, -999.0
25-11-2023, 00:42:16,    301,    0.0,   -0.6,   0.00,   0.00, 1018.8,   68.2, -999.0
25-11-2023, 00:42:26,    302,    0.0,   -0.7,   0.00,   0.00, 1018.8,   68.3, -999.0
25-11-2023, 00:42:36,    302,    0.0,   -0.8,   0.00,   0.00, 1018.8,   68.2, -999.0
25-11-2023, 00:42:46,    302,    0.0,   -0.6,   0.00,   0.00, 1018.9,   68.3, -999.0
25-11-2023, 00:42:56,    302,    0.0,   -0.7,   0.00,   0.00, 1018.8,   68.3, -999.0
25-11-2023, 00:43:06,    302,    0.0,   -0.8,   0.00,   0.00, 1018.8,   68.2, -999.0
25-11-2023, 00:43:16,    301,    0.0,   -0.7,   0.00,   0.00, 1018.8,   68.3, -999.0
25-11-2023, 00:43:26,    301,    0.0,   -0.8,   0.00,   0.00, 1018.8,   68.3, -999.0
25-11-2023, 00:43:36,    301,    0.0,   -0.6,   0.00,   0.00, 1018.9,   68.4, -999.0
25-11-2023, 00:43:46,    301,    0.0,   -0.6,   0.00,   0.00, 1018.8,   68.4, -999.0
25-11-2023, 00:43:56,    301,    0.0,   -0.6,   0.00,   0.00, 1018.8,   68.4, -999.0
25-11-2023, 00:44:06,    301,    0.0,   -0.7,   0.00,   0.00, 1018.8,   68.5, -999.0
25-11-2023, 00:44:16,    302,    0.0,   -0.7,   0.00,   0.00, 1018.8,   68.6, -999.0
25-11-2023, 00:44:26,    301,    0.0,   -0.7,   0.00,   0.00, 1018.8,   68.6, -999.0
25-11-2023, 00:44:36,    302,    0.0,   -0.7,   0.00,   0.00, 1018.8,   68.6, -999.0
25-11-2023, 00:44:46,    302,    0.0,   -0.6,   0.00,   0.00, 1018.8,   68.5, -999.0
25-11-2023, 00:44:56,    301,    0.0,   -0.6,   0.00,   0.00, 1018.8,   68.5, -999.0
25-11-2023, 00:45:06,    301,    0.0,   -0.7,   0.00,   0.00, 1018.8,   68.6, -999.0
25-11-2023, 00:45:16,    297,    0.0,   -0.7,   0.00,   0.00, 1018.8,   68.6, -999.0
25-11-2023, 00:45:26,    297,    0.0,   -0.7,   0.00,   0.00, 1018.8,   68.6, -999.0
25-11-2023, 00:45:36,    297,    0.0,   -0.7,   0.00,   0.00, 1018.8,   68.5, -999.0
25-11-2023, 00:45:46,    297,    0.0,   -0.8,   0.00,   0.00, 1018.8,   68.6, -999.0
25-11-2023, 00:45:55,    297,    0.0,   -0.7,   0.00,   0.00, 1018.8,   68.5, -999.0
25-11-2023, 00:46:06,    298,    0.0,   -0.7,   0.00,   0.00, 1018.8,   68.7, -999.0
25-11-2023, 00:46:16,    298,    0.0,   -0.6,   0.00,   0.00, 1018.8,   68.8, -999.0
25-11-2023, 00:46:26,    298,    0.0,   -0.7,   0.00,   0.00, 1018.8,   68.7, -999.0
25-11-2023, 00:46:35,    298,    0.0,   -0.6,   0.00,   0.00, 1018.8,   68.6, -999.0
25-11-2023, 00:46:46,    298,    0.0,   -0.6,   0.00,   0.00, 1018.8,   68.7, -999.0